Zurück zum Katalog

IRIDIUM 164

AktivKommunikationPO
NORAD 43577·PAYLOAD·🇺🇸 United States

Gestartet Jul 25, 2018 von Vandenberg Space Force Base

Loading…

Nächste Überflüge (nächste 24 Stunden)

TLE

AktuellSource: CelesTrak SupGP

Epoche: Sep 14, 2026, 09:54 UTC

1 43577C 18061J   26257.41284722 -.00003990  00000+0 -14265-2 0  2573
2 43577  86.4012  19.4519 0002042  95.8463 319.6878 14.34222731    13

Verfolge IRIDIUM 164 in Echtzeit mit AllMySat

Download on the App Store